Time,TemperatureF,DewpointF,PressureIn,WindDirection,WindDirectionDegrees,WindSpeedMPH,WindSpeedGustMPH,Humidity,HourlyPrecipIn,Conditions,Clouds,dailyrainin,SolarRadiationWatts/m^2,SoftwareType,DateUTC
2013-08-03 00:12:00,57.0,29.0,-100.00,SE,135,1.0,7.0,34,0.00,,,0.00,0.000000,,2013-08-03 07:12:00,
2013-08-03 00:22:00,57.0,29.0,-100.00,SE,135,1.0,7.0,34,0.00,,,0.00,0.000000,,2013-08-03 07:22:00,
2013-08-03 00:32:00,57.0,29.0,-100.00,SE,135,1.0,7.0,34,0.00,,,0.00,0.000000,,2013-08-03 07:32:00,
2013-08-03 00:43:00,57.0,29.0,-100.00,SE,135,1.0,7.0,34,0.00,,,0.00,0.000000,,2013-08-03 07:43:00,
2013-08-03 01:11:00,53.0,27.0,-100.00,SSE,156,0.0,5.0,37,0.00,,,0.00,0.000000,,2013-08-03 08:11:00,
2013-08-03 01:22:00,53.0,27.0,-100.00,SSE,156,0.0,5.0,37,0.00,,,0.00,0.000000,,2013-08-03 08:22:00,
2013-08-03 01:32:00,53.0,27.0,-100.00,SSE,156,0.0,5.0,37,0.00,,,0.00,0.000000,,2013-08-03 08:32:00,
2013-08-03 01:43:00,53.0,27.0,-100.00,SSE,156,0.0,5.0,37,0.00,,,0.00,0.000000,,2013-08-03 08:43:00,
2013-08-03 02:22:00,52.0,29.0,-100.00,SW,233,0.0,0.0,41,0.00,,,0.00,0.000000,,2013-08-03 09:22:00,
2013-08-03 02:32:00,52.0,29.0,-100.00,SW,233,0.0,0.0,41,0.00,,,0.00,0.000000,,2013-08-03 09:32:00,
2013-08-03 02:43:00,52.0,29.0,-100.00,SW,233,0.0,0.0,41,0.00,,,0.00,0.000000,,2013-08-03 09:43:00,
2013-08-03 03:12:00,48.0,28.0,-100.00,SE,143,0.0,0.0,45,0.00,,,0.00,0.000000,,2013-08-03 10:12:00,
2013-08-03 03:22:00,48.0,28.0,-100.00,SE,143,0.0,0.0,45,0.00,,,0.00,0.000000,,2013-08-03 10:22:00,
2013-08-03 03:32:00,48.0,28.0,-100.00,SE,143,0.0,0.0,45,0.00,,,0.00,0.000000,,2013-08-03 10:32:00,
2013-08-03 03:42:00,48.0,28.0,-100.00,SE,143,0.0,0.0,45,0.00,,,0.00,0.000000,,2013-08-03 10:42:00,
2013-08-03 04:12:00,48.0,29.0,-100.00,WSW,242,0.0,0.0,48,0.00,,,0.00,0.000000,,2013-08-03 11:12:00,
2013-08-03 04:22:00,48.0,29.0,-100.00,WSW,242,0.0,0.0,48,0.00,,,0.00,0.000000,,2013-08-03 11:22:00,
2013-08-03 04:32:00,48.0,29.0,-100.00,WSW,242,0.0,0.0,48,0.00,,,0.00,0.000000,,2013-08-03 11:32:00,
2013-08-03 04:43:00,48.0,29.0,-100.00,WSW,242,0.0,0.0,48,0.00,,,0.00,0.000000,,2013-08-03 11:43:00,
2013-08-03 05:12:00,47.0,29.0,-100.00,ESE,102,0.0,0.0,50,0.00,,,0.00,0.000000,,2013-08-03 12:12:00,
2013-08-03 05:22:00,47.0,29.0,-100.00,ESE,102,0.0,0.0,50,0.00,,,0.00,0.000000,,2013-08-03 12:22:00,
2013-08-03 05:32:00,47.0,29.0,-100.00,ESE,102,0.0,0.0,50,0.00,,,0.00,0.000000,,2013-08-03 12:32:00,
2013-08-03 05:43:00,47.0,29.0,-100.00,ESE,102,0.0,0.0,50,0.00,,,0.00,0.000000,,2013-08-03 12:43:00,
2013-08-03 06:22:00,44.0,28.0,-100.00,SSE,166,0.0,0.0,52,0.00,,,0.00,0.000000,,2013-08-03 13:22:00,
2013-08-03 06:32:00,44.0,28.0,-100.00,SSE,166,0.0,0.0,52,0.00,,,0.00,0.000000,,2013-08-03 13:32:00,
2013-08-03 07:22:00,45.0,30.0,-100.00,WSW,250,0.0,0.0,55,0.00,,,0.00,10.000000,,2013-08-03 14:22:00,
2013-08-03 07:32:00,45.0,30.0,-100.00,WSW,250,0.0,0.0,55,0.00,,,0.00,10.000000,,2013-08-03 14:32:00,
2013-08-03 07:42:00,45.0,30.0,-100.00,WSW,250,0.0,0.0,55,0.00,,,0.00,10.000000,,2013-08-03 14:42:00,
2013-08-03 08:22:00,51.0,32.0,-100.00,WSW,252,0.0,0.0,48,0.00,,,0.00,36.000000,,2013-08-03 15:22:00,
2013-08-03 09:22:00,63.0,34.0,-100.00,West,277,0.0,0.0,34,-99.99,,,0.00,305.000000,,2013-08-03 16:22:00,
2013-08-03 09:33:00,63.0,34.0,-100.00,West,277,0.0,0.0,34,-99.99,,,0.00,305.000000,,2013-08-03 16:33:00,
2013-08-03 09:43:00,63.0,34.0,-100.00,West,277,0.0,0.0,34,-99.99,,,0.00,305.000000,,2013-08-03 16:43:00,
2013-08-03 10:22:00,74.0,29.0,-100.00,North,353,1.0,5.0,19,0.00,,,0.00,711.000000,,2013-08-03 17:22:00,
2013-08-03 10:32:00,74.0,29.0,-100.00,North,353,1.0,5.0,19,0.00,,,0.00,711.000000,,2013-08-03 17:32:00,
2013-08-03 10:43:00,74.0,29.0,-100.00,North,353,1.0,5.0,19,0.00,,,0.00,711.000000,,2013-08-03 17:43:00,
2013-08-03 11:12:00,79.0,27.0,-100.00,North,357,1.0,6.0,15,0.00,,,0.00,913.000000,,2013-08-03 18:12:00,
2013-08-03 11:22:00,79.0,27.0,-100.00,North,357,1.0,6.0,15,0.00,,,0.00,913.000000,,2013-08-03 18:22:00,
2013-08-03 11:32:00,79.0,27.0,-100.00,North,357,1.0,6.0,15,0.00,,,0.00,913.000000,,2013-08-03 18:32:00,
2013-08-03 11:43:00,79.0,27.0,-100.00,North,357,1.0,6.0,15,0.00,,,0.00,913.000000,,2013-08-03 18:43:00,
2013-08-03 12:12:00,81.0,31.0,-100.00,NNE,22,4.0,11.0,16,0.00,,,0.00,1060.000000,,2013-08-03 19:12:00,
2013-08-03 12:22:00,81.0,31.0,-100.00,NNE,22,4.0,11.0,16,0.00,,,0.00,1060.000000,,2013-08-03 19:22:00,
2013-08-03 12:32:00,81.0,31.0,-100.00,NNE,22,4.0,11.0,16,0.00,,,0.00,1060.000000,,2013-08-03 19:32:00,
2013-08-03 12:42:00,81.0,31.0,-100.00,NNE,22,4.0,11.0,16,0.00,,,0.00,1060.000000,,2013-08-03 19:42:00,
2013-08-03 13:22:00,83.0,29.0,-100.00,NW,304,4.0,11.0,14,0.00,,,0.00,1135.000000,,2013-08-03 20:22:00,
2013-08-03 13:32:00,83.0,29.0,-100.00,NW,304,4.0,11.0,14,0.00,,,0.00,1135.000000,,2013-08-03 20:32:00,
2013-08-03 13:42:00,83.0,29.0,-100.00,NW,304,4.0,11.0,14,0.00,,,0.00,1135.000000,,2013-08-03 20:42:00,
2013-08-03 14:22:00,82.0,20.0,-100.00,WSW,244,9.0,18.0,10,0.00,,,0.00,1155.000000,,2013-08-03 21:22:00,
2013-08-03 14:32:00,82.0,20.0,-100.00,WSW,244,9.0,18.0,10,0.00,,,0.00,1155.000000,,2013-08-03 21:32:00,
2013-08-03 14:42:00,82.0,20.0,-100.00,WSW,244,9.0,18.0,10,0.00,,,0.00,1155.000000,,2013-08-03 21:42:00,
2013-08-03 15:12:00,84.0,22.0,-100.00,WSW,247,10.0,20.0,10,0.00,,,0.00,1113.000000,,2013-08-03 22:12:00,
2013-08-03 15:22:00,84.0,22.0,-100.00,WSW,247,10.0,20.0,10,0.00,,,0.00,1113.000000,,2013-08-03 22:22:00,
2013-08-03 15:33:00,84.0,22.0,-100.00,WSW,247,10.0,20.0,10,0.00,,,0.00,1113.000000,,2013-08-03 22:33:00,
2013-08-03 15:43:00,84.0,22.0,-100.00,WSW,247,10.0,20.0,10,0.00,,,0.00,1113.000000,,2013-08-03 22:43:00,
2013-08-03 16:22:00,84.0,26.0,-100.00,SW,235,9.0,22.0,12,0.00,,,0.00,1003.000000,,2013-08-03 23:22:00,
2013-08-03 16:32:00,84.0,26.0,-100.00,SW,235,9.0,22.0,12,0.00,,,0.00,1003.000000,,2013-08-03 23:32:00,
2013-08-03 16:42:00,84.0,26.0,-100.00,SW,235,9.0,22.0,12,0.00,,,0.00,1003.000000,,2013-08-03 23:42:00,
2013-08-03 17:12:00,82.0,28.0,-100.00,WSW,252,10.0,18.0,14,0.00,,,0.00,828.000000,,2013-08-04 00:12:00,
2013-08-03 17:22:00,82.0,28.0,-100.00,WSW,252,10.0,18.0,14,0.00,,,0.00,828.000000,,2013-08-04 00:22:00,
2013-08-03 17:32:00,82.0,28.0,-100.00,WSW,252,10.0,18.0,14,0.00,,,0.00,828.000000,,2013-08-04 00:32:00,
2013-08-03 17:42:00,82.0,28.0,-100.00,WSW,252,10.0,18.0,14,0.00,,,0.00,828.000000,,2013-08-04 00:42:00,
2013-08-03 18:12:00,82.0,30.0,-100.00,West,264,9.0,21.0,15,0.00,,,0.00,618.000000,,2013-08-04 01:12:00,
2013-08-03 18:22:00,82.0,30.0,-100.00,West,264,9.0,21.0,15,0.00,,,0.00,618.000000,,2013-08-04 01:22:00,
2013-08-03 18:32:00,82.0,30.0,-100.00,West,264,9.0,21.0,15,0.00,,,0.00,618.000000,,2013-08-04 01:32:00,
2013-08-03 18:42:00,82.0,30.0,-100.00,West,264,9.0,21.0,15,0.00,,,0.00,618.000000,,2013-08-04 01:42:00,
2013-08-03 19:12:00,81.0,32.0,-100.00,ENE,78,3.0,19.0,17,0.00,,,0.00,385.000000,,2013-08-04 02:12:00,
2013-08-03 19:22:00,81.0,32.0,-100.00,ENE,78,3.0,19.0,17,0.00,,,0.00,385.000000,,2013-08-04 02:22:00,
2013-08-03 19:32:00,81.0,32.0,-100.00,ENE,78,3.0,19.0,17,0.00,,,0.00,385.000000,,2013-08-04 02:32:00,
2013-08-03 19:42:00,81.0,32.0,-100.00,ENE,78,3.0,19.0,17,0.00,,,0.00,385.000000,,2013-08-04 02:42:00,
2013-08-03 20:11:00,73.0,31.0,-100.00,SW,229,7.0,17.0,21,0.00,,,0.00,142.000000,,2013-08-04 03:11:00,
2013-08-03 20:22:00,73.0,31.0,-100.00,SW,229,7.0,17.0,21,0.00,,,0.00,142.000000,,2013-08-04 03:22:00,
2013-08-03 20:32:00,73.0,31.0,-100.00,SW,229,7.0,17.0,21,0.00,,,0.00,142.000000,,2013-08-04 03:32:00,
2013-08-03 20:42:00,73.0,31.0,-100.00,SW,229,7.0,17.0,21,0.00,,,0.00,142.000000,,2013-08-04 03:42:00,
2013-08-03 21:12:00,68.0,31.0,-100.00,SW,225,5.0,14.0,25,0.00,,,0.00,4.000000,,2013-08-04 04:12:00,
2013-08-03 21:22:00,68.0,31.0,-100.00,SW,225,5.0,14.0,25,0.00,,,0.00,4.000000,,2013-08-04 04:22:00,
2013-08-03 21:32:00,68.0,31.0,-100.00,SW,225,5.0,14.0,25,0.00,,,0.00,4.000000,,2013-08-04 04:32:00,
2013-08-03 21:42:00,68.0,31.0,-100.00,SW,225,5.0,14.0,25,0.00,,,0.00,4.000000,,2013-08-04 04:42:00,
2013-08-03 22:12:00,67.0,33.0,-100.00,SSW,207,3.0,13.0,28,0.00,,,0.00,0.000000,,2013-08-04 05:12:00,
2013-08-03 22:22:00,67.0,33.0,-100.00,SSW,207,3.0,13.0,28,0.00,,,0.00,0.000000,,2013-08-04 05:22:00,
2013-08-03 22:32:00,67.0,33.0,-100.00,SSW,207,3.0,13.0,28,0.00,,,0.00,0.000000,,2013-08-04 05:32:00,
2013-08-03 22:42:00,67.0,33.0,-100.00,SSW,207,3.0,13.0,28,0.00,,,0.00,0.000000,,2013-08-04 05:42:00,
2013-08-03 23:12:00,62.0,30.0,-100.00,SSE,157,2.0,14.0,30,0.00,,,0.00,0.000000,,2013-08-04 06:12:00,
2013-08-03 23:22:00,62.0,30.0,-100.00,SSE,157,2.0,14.0,30,0.00,,,0.00,0.000000,,2013-08-04 06:22:00,
2013-08-03 23:32:00,62.0,30.0,-100.00,SSE,157,2.0,14.0,30,0.00,,,0.00,0.000000,,2013-08-04 06:32:00,
2013-08-03 23:43:00,62.0,30.0,-100.00,SSE,157,2.0,14.0,30,0.00,,,0.00,0.000000,,2013-08-04 06:43:00,